Simultaneous Nadir Overpasses (SNOs) Predictions

Prediction of SNOs between METOP-C and LANDSAT-8 Satellite Orbit:

Table of predicted SNOs for the next 14.0 days since TLE Epoch: 12/12/2020
Index Date (METOP-C) Time (METOP-C) Lat,Lon (METOP-C) SZA (METOP-C ) Date (LANDSAT-8) Time (LANDSAT-8) Lat,Lon (LANDSAT-8) SZA (LANDSAT-8 ) Distance(km) Time Diff (sec)
1 12/12/2020 13:53:59 -81.06,-169.78 73.84 12/12/2020 13:55:00 -81.05,-169.91 73.84 2.31 61
2 12/12/2020 14:44:39 81.08, -1.86 106.24 12/12/2020 14:44:25 81.08, -1.82 106.23 0.60 14
3 12/15/2020 09:28:22 -81.06,-103.52 73.73 12/15/2020 09:29:14 -81.05,-103.46 73.71 1.09 52
4 12/15/2020 10:19:00 81.10, 65.14 106.44 12/15/2020 10:18:38 81.11, 64.96 106.41 3.20 22
5 12/18/2020 05:02:44 -81.08, -36.54 73.59 12/18/2020 05:03:28 -81.07, -36.70 73.59 2.86 44
6 12/18/2020 05:53:24 81.10, 131.36 106.48 12/18/2020 05:52:53 81.10, 131.33 106.47 0.66 31
7 12/21/2020 00:37:08 -81.07, 29.69 73.61 12/21/2020 00:37:43 -81.07, 29.66 73.60 0.55 35
8 12/21/2020 01:27:48 81.09,-162.44 106.46 12/21/2020 01:27:08 81.09,-162.34 106.46 1.76 40
9 12/23/2020 20:11:31 -81.06, 95.89 73.69 12/23/2020 20:11:57 -81.06, 95.97 73.67 1.38 26



Historial Predications of SNOs between METOP-C and LANDSAT-8
